This demonstration page uses our WeatherBlox Daily Observations layout. Learn more.

Left ArrowRight Arrow

38.89511, -77.03637

Hourly Observations for July 17, 2015

Temp ( °F °C ) Dew Point ( °F °C ) Humidity (%) Winds ( mph kmh ) Pressure ( in mb ) Visibility ( mi km ) Precip ( " mm )
12:52 am 00:52 Partly Cloudy 73 22.8 63 17.2 71 71 S 5 7 30.06 1018 10 16 N/A
1:52 am 01:52 Partly Cloudy 72 22.2 63 17.2 73 73 SW 6 9 30.07 1018 10 16 N/A
2:52 am 02:52 Partly Cloudy 72 22.2 62 16.7 71 71 N N/A 30.08 1019 10 16 N/A
3:52 am 03:52 Mostly Clear 71 21.7 65 18.3 81 81 S 6 9 30.08 1019 10 16 N/A
4:08 am 04:08 Mostly Cloudy 72 22 64 18 78 78 SSE 6 9 30.09 1019 10 16 N/A
4:52 am 04:52 Partly Cloudy 72 22.2 66 18.9 82 82 S 6 9 30.08 1019 10 16 N/A
5:07 am 05:07 Mostly Cloudy 72 22 66 19 83 83 SSW 5 7 30.09 1019 10 16 N/A
5:40 am 05:40 Partly Cloudy 72 22 66 19 83 83 SSW 7 11 30.09 1019 10 16 N/A
5:52 am 05:52 Partly Cloudy 72 22.2 67 19.4 84 84 SSW 7 11 30.08 1019 10 16 N/A
6:52 am 06:52 Partly Cloudy 73 22.8 68 20 84 84 SSW 5 7 30.09 1019 10 16 N/A
7:52 am 07:52 Cloudy 74 23.3 68 20 82 82 S 8 13 30.10 1019 10 16 N/A
8:17 am 08:17 Cloudy 75 24 68 20 78 78 S 9 15 30.09 1019 10 16 N/A
8:52 am 08:52 Cloudy 76 24.4 68 20 77 77 S 9 15 30.10 1019 10 16 N/A
9:52 am 09:52 Cloudy 78 25.6 69 20.6 74 74 S 12 19 30.09 1019 10 16 N/A
10:52 am 10:52 Cloudy 79 26.1 66 18.9 65 65 S 8 13 30.10 1019 10 16 N/A
11:52 am 11:52 Cloudy 80 26.7 67 19.4 64 64 S 9 15 30.09 1019 10 16 N/A
12:52 pm 12:52 Cloudy 81 27.2 67 19.4 62 62 S 9 15 30.08 1019 10 16 N/A
1:52 pm 13:52 Cloudy 82 27.8 67 19.4 60 60 S 12 19 30.06 1018 10 16 N/A
2:52 pm 14:52 Cloudy 84 28.9 67 19.4 57 57 S 9 15 30.05 1018 10 16 N/A
3:52 pm 15:52 Cloudy 83 28.3 68 20 61 61 S 13 20 30.03 1017 10 16 N/A
4:52 pm 16:52 Cloudy 83 28.3 68 20 61 61 S 9 15 30.02 1017 10 16 N/A
5:52 pm 17:52 Cloudy 83 28.3 68 20 61 61 S 12 19 30.00 1016 10 16 N/A
6:52 pm 18:52 Cloudy 83 28.3 69 20.6 63 63 S 9 15 29.98 1015 10 16 N/A
7:52 pm 19:52 Mostly Cloudy 82 27.8 70 21.1 67 67 S 9 15 29.98 1015 10 16 N/A
8:52 pm 20:52 Mostly Cloudy 81 27.2 70 21.1 69 69 SSE 6 9 29.99 1016 10 16 N/A
9:52 pm 21:52 Mostly Cloudy 80 26.7 70 21.1 71 71 SSE 7 11 30.00 1016 10 16 N/A
10:52 pm 22:52 Cloudy 80 26.7 70 21.1 71 71 SSE 9 15 30.01 1016 10 16 N/A
11:52 pm 23:52 Cloudy 79 26.1 70 21.1 74 74 SSE 10 17 30.01 1016 10 16 N/A

Powered by AerisWeather